Location: Unspecified
(0.0000°N, 0.0000°E)
Time: 20:11:01
(UTC+00:00)

ISS - Pass Details

Date: 20 February 2018
Orbit: 403 x 407 km, 51.6° (Epoch: 20 February)

Event Time Altitude Azimuth Distance (km) Brightness Sun altitude
Rises 05:34:41 0° 201° (SSW) 2,320 -0.1 -9.6°
Reaches altitude 10° 05:36:54 10° 191° (S) 1,458 -1.0 -9.0°
Maximum altitude 05:39:51 31° 126° (SE) 725 -1.8 -8.3°
Drops below altitude 10° 05:42:48 10° 61° (ENE) 1,450 -0.2 -7.6°
Sets 05:45:00 0° 50° (NE) 2,306 0.6 -7.1°
